When you browse on this site, cookies collect data to enhance your experience and personalize the content and advertising you see.
Visit our Privacy Policy to learn more. By continuing to use the site, you agree to this use of cookies and data.

Previsão horária em Yakushi

Hoje, 3 Julho, Sexta-feira

Tempo Temperatura Precipitação Vento Pressão Humidade
00:00 +16°C° 0 mm 3 m/s 750 mmHg 97%
01:00 +14°C° 0 mm 3 m/s 751 mmHg 97%
02:00 +14°C° 0 mm 2 m/s 751 mmHg 97%
03:00 +14°C° 0 mm 2 m/s 751 mmHg 97%
04:00 +14°C° 0 mm 2 m/s 751 mmHg 97%
05:00 +14°C° 0 mm 2 m/s 752 mmHg 97%
06:00 +15°C° 0 mm 2 m/s 752 mmHg 93%
07:00 +16°C° 0 mm 2 m/s 752 mmHg 89%
08:00 +17°C° 0 mm 2 m/s 753 mmHg 85%
09:00 +19°C° 0 mm 2 m/s 753 mmHg 74%
10:00 +21°C° 0 mm 2 m/s 753 mmHg 63%
11:00 +24°C° 0 mm 3 m/s 753 mmHg 52%
12:00 +24°C° 0 mm 2 m/s 753 mmHg 50%
13:00 +25°C° 0 mm 2 m/s 753 mmHg 49%
14:00 +26°C° 0 mm 2 m/s 752 mmHg 47%
15:00 +25°C° 0 mm 2 m/s 752 mmHg 49%
16:00 +25°C° 0 mm 2 m/s 752 mmHg 51%
17:00 +25°C° 0 mm 2 m/s 752 mmHg 53%
18:00 +23°C° 0 mm 2 m/s 752 mmHg 60%
19:00 +22°C° 0 mm 1 m/s 752 mmHg 67%
20:00 +20°C° 0 mm 1 m/s 753 mmHg 73%
21:00 +19°C° 0 mm 1 m/s 753 mmHg 76%
22:00 +18°C° 0 mm 1 m/s 753 mmHg 80%
23:00 +15°C° 0 mm 1 m/s 753 mmHg 83%

Amanhã, 4 Julho, Sábado

Tempo Temperatura Precipitação Vento Pressão Humidade
00:00 +15°C° 0 mm 1 m/s 753 mmHg 81%
01:00 +16°C° 0 mm 1 m/s 753 mmHg 80%
02:00 +16°C° 0 mm 1 m/s 753 mmHg 78%
03:00 +15°C° 0 mm 1 m/s 753 mmHg 80%
04:00 +15°C° 0 mm 1 m/s 753 mmHg 82%
05:00 +15°C° 0 mm 1 m/s 753 mmHg 85%
06:00 +17°C° 0 mm 2 m/s 753 mmHg 80%
07:00 +18°C° 0 mm 2 m/s 753 mmHg 75%
08:00 +20°C° 0 mm 2 m/s 753 mmHg 70%
09:00 +21°C° 0 mm 3 m/s 753 mmHg 66%
10:00 +22°C° 0 mm 3 m/s 753 mmHg 61%
11:00 +23°C° 0 mm 4 m/s 753 mmHg 57%
12:00 +23°C° 0 mm 4 m/s 753 mmHg 54%
13:00 +25°C° 0 mm 4 m/s 753 mmHg 51%
14:00 +25°C° 0 mm 5 m/s 752 mmHg 48%
15:00 +25°C° 0 mm 5 m/s 752 mmHg 50%
16:00 +25°C° 0 mm 4 m/s 752 mmHg 51%
17:00 +25°C° 0 mm 4 m/s 752 mmHg 53%
18:00 +23°C° 0 mm 4 m/s 752 mmHg 60%
19:00 +21°C° 0 mm 3 m/s 752 mmHg 67%
20:00 +20°C° 0 mm 3 m/s 752 mmHg 74%
21:00 +19°C° 0 mm 3 m/s 752 mmHg 78%
22:00 +18°C° 0 mm 3 m/s 752 mmHg 82%
23:00 +17°C° 0 mm 3 m/s 752 mmHg 86%

Depois de amanhã, 5 Julho, Domingo

Tempo Temperatura Precipitação Vento Pressão Humidade
00:00 +16°C° 0 mm 3 m/s 752 mmHg 88%
01:00 +16°C° 0 mm 3 m/s 752 mmHg 90%
02:00 +16°C° 0 mm 3 m/s 752 mmHg 91%
03:00 +16°C° 0 mm 3 m/s 752 mmHg 91%
04:00 +16°C° 0 mm 3 m/s 752 mmHg 91%
05:00 +16°C° 0 mm 3 m/s 752 mmHg 91%
06:00 +16°C° 0 mm 3 m/s 752 mmHg 88%
07:00 +17°C° 0 mm 3 m/s 752 mmHg 85%
08:00 +18°C° 0 mm 3 m/s 752 mmHg 82%
09:00 +18°C° 0.1 mm 3 m/s 752 mmHg 83%
10:00 +18°C° 0.1 mm 3 m/s 752 mmHg 83%
11:00 +19°C° 0.1 mm 3 m/s 752 mmHg 83%
12:00 +19°C° 0.2 mm 3 m/s 751 mmHg 85%
13:00 +19°C° 0.2 mm 3 m/s 751 mmHg 86%
14:00 +18°C° 0.2 mm 3 m/s 751 mmHg 88%
15:00 +19°C° 0 mm 4 m/s 751 mmHg 83%
16:00 +20°C° 0 mm 4 m/s 750 mmHg 78%
17:00 +21°C° 0 mm 4 m/s 750 mmHg 73%
18:00 +21°C° 0 mm 3 m/s 750 mmHg 77%
19:00 +20°C° 0 mm 3 m/s 750 mmHg 81%
20:00 +20°C° 0 mm 2 m/s 749 mmHg 85%
21:00 +19°C° 0 mm 3 m/s 749 mmHg 87%
22:00 +19°C° 0 mm 3 m/s 749 mmHg 89%
23:00 +18°C° 0 mm 3 m/s 749 mmHg 91%

6 Julho, Segunda-feira

Tempo Temperatura Precipitação Vento Pressão Humidade
00:00 +18°C° 0 mm 4 m/s 749 mmHg 90%
01:00 +18°C° 0 mm 4 m/s 748 mmHg 90%
02:00 +18°C° 0 mm 4 m/s 748 mmHg 90%
03:00 +19°C° 0 mm 4 m/s 748 mmHg 89%
04:00 +19°C° 0 mm 4 m/s 747 mmHg 89%
05:00 +19°C° 0 mm 4 m/s 747 mmHg 88%
06:00 +19°C° 0.1 mm 4 m/s 747 mmHg 89%
07:00 +19°C° 0.1 mm 4 m/s 747 mmHg 90%
08:00 +19°C° 0.1 mm 4 m/s 747 mmHg 91%
09:00 +20°C° 0.4 mm 5 m/s 747 mmHg 87%
10:00 +21°C° 0.4 mm 5 m/s 747 mmHg 83%
11:00 +22°C° 0.4 mm 6 m/s 747 mmHg 79%
12:00 +23°C° 0.7 mm 6 m/s 746 mmHg 78%
13:00 +23°C° 0.7 mm 6 m/s 746 mmHg 76%
14:00 +23°C° 0.7 mm 6 m/s 746 mmHg 75%
15:00 +23°C° 0.1 mm 5 m/s 746 mmHg 72%
16:00 +25°C° 0.1 mm 5 m/s 746 mmHg 68%
17:00 +25°C° 0.1 mm 5 m/s 746 mmHg 65%
18:00 +22°C° 0.1 mm 4 m/s 746 mmHg 72%
19:00 +21°C° 0.1 mm 3 m/s 746 mmHg 78%
20:00 +20°C° 0.1 mm 3 m/s 746 mmHg 85%
21:00 +19°C° 0 mm 3 m/s 746 mmHg 85%
22:00 +18°C° 0 mm 3 m/s 747 mmHg 86%
23:00 +17°C° 0 mm 3 m/s 747 mmHg 86%

7 Julho, Terça-feira

Tempo Temperatura Precipitação Vento Pressão Humidade
00:00 +16°C° 0 mm 3 m/s 748 mmHg 88%
01:00 +14°C° 0 mm 3 m/s 748 mmHg 90%
02:00 +13°C° 0 mm 3 m/s 748 mmHg 91%
03:00 +12°C° 0 mm 3 m/s 748 mmHg 90%
04:00 +12°C° 0 mm 3 m/s 749 mmHg 89%
05:00 +12°C° 0 mm 3 m/s 749 mmHg 87%
06:00 +13°C° 0 mm 4 m/s 749 mmHg 80%
07:00 +15°C° 0 mm 5 m/s 749 mmHg 72%
08:00 +17°C° 0 mm 5 m/s 749 mmHg 65%
09:00 +19°C° 0 mm 6 m/s 750 mmHg 61%
10:00 +20°C° 0 mm 6 m/s 750 mmHg 57%
11:00 +21°C° 0 mm 6 m/s 750 mmHg 53%
12:00 +21°C° 0 mm 6 m/s 750 mmHg 52%
13:00 +21°C° 0 mm 6 m/s 750 mmHg 50%
14:00 +22°C° 0 mm 6 m/s 750 mmHg 48%
15:00 +21°C° 0 mm 6 m/s 750 mmHg 49%
16:00 +21°C° 0 mm 5 m/s 750 mmHg 50%
17:00 +20°C° 0 mm 5 m/s 750 mmHg 51%
18:00 +19°C° 0 mm 4 m/s 750 mmHg 57%
19:00 +17°C° 0 mm 4 m/s 750 mmHg 63%
20:00 +16°C° 0 mm 3 m/s 751 mmHg 69%
21:00 +14°C° 0 mm 3 m/s 751 mmHg 73%
22:00 +12°C° 0 mm 3 m/s 751 mmHg 76%
23:00 +11°C° 0 mm 3 m/s 752 mmHg 80%

8 Julho, Quarta-feira

Tempo Temperatura Precipitação Vento Pressão Humidade
00:00 +10°C° 0 mm 3 m/s 752 mmHg 83%
01:00 +10°C° 0 mm 3 m/s 752 mmHg 86%
02:00 +9°C° 0 mm 3 m/s 752 mmHg 89%
03:00 +9°C° 0 mm 3 m/s 752 mmHg 90%
04:00 +10°C° 0 mm 3 m/s 752 mmHg 91%
05:00 +10°C° 0 mm 3 m/s 752 mmHg 92%
06:00 +11°C° 0 mm 3 m/s 752 mmHg 85%
07:00 +13°C° 0 mm 3 m/s 752 mmHg 79%
08:00 +16°C° 0 mm 3 m/s 752 mmHg 73%
09:00 +17°C° 0 mm 3 m/s 753 mmHg 68%
10:00 +18°C° 0 mm 4 m/s 753 mmHg 62%
11:00 +20°C° 0 mm 4 m/s 753 mmHg 57%
12:00 +20°C° 0.3 mm 4 m/s 753 mmHg 59%
13:00 +20°C° 0.3 mm 4 m/s 753 mmHg 61%
14:00 +20°C° 0.3 mm 4 m/s 752 mmHg 64%
15:00 +20°C° 0.3 mm 4 m/s 752 mmHg 64%
16:00 +20°C° 0.3 mm 3 m/s 752 mmHg 65%
17:00 +20°C° 0.3 mm 3 m/s 752 mmHg 66%
18:00 +19°C° 0.1 mm 3 m/s 753 mmHg 72%
19:00 +17°C° 0.1 mm 2 m/s 753 mmHg 78%
20:00 +16°C° 0.1 mm 2 m/s 753 mmHg 84%
21:00 +15°C° 0 mm 2 m/s 753 mmHg 87%
22:00 +14°C° 0 mm 2 m/s 754 mmHg 90%
23:00 +13°C° 0 mm 2 m/s 754 mmHg 93%
Mostrar mais